Location: Ferchesar
(52.6477°N, 12.4298°E)
Time: 06:45:01
(UTC+02:00)

Transit 4A - Pass Details

Date: 05 March 2021
Orbit: 869 x 976 km, 66.8° (Epoch: 12 April)

Event Time Altitude Azimuth Distance (km) Brightness Sun altitude
Rises 08:58:16 0° 170° (S) 3,658 11.7 17.4°
Reaches altitude 10° 09:01:23 10° 156° (SSE) 2,709 11.6 17.8°
Maximum altitude 09:06:05 22° 107° (ESE) 1,952 11.3 18.3°
Drops below altitude 10° 09:10:45 10° 59° (ENE) 2,685 10.7 18.9°
Sets 09:13:48 0° 45° (NE) 3,617 11.1 19.3°
